Regional Weather Roundup
Issued by NWS Raleigh/Durham, NC

Home | Current Version | Previous Version | Text Only | Print | Product List | Glossary On
Versions: 1 2 3 4 5 6 7 8 9 10 11 12 13 14 15 16 17 18 19 20 21 22 23 24 25 26 27 28 29 30 31 32 33 34 35 36 37 38 39 40 41 42 43 44 45 46 47 48 49 50
000
ASUS42 KRAH 071610
RWRRAH
NATIONAL WEATHER SERVICE RALEIGH NC
1200 PM EDT TUE JUL 07 2015

NOTE: "FAIR" INDICATES FEW OR NO CLOUDS BELOW 12,000 FEET WITH NO
SIGNIFICANT WEATHER AND/OR OBSTRUCTIONS TO VISIBILITY.

NCZ001-053-055-056-065-067-071700-
WESTERN NORTH CAROLINA

CITY           SKY/WX    TMP DP  RH WIND       PRES   REMARKS
ASHEVILLE      NOT AVBL
JEFFERSON      NOT AVBL
HICKORY        NOT AVBL
RUTHERFORDTON  NOT AVBL
MOUNT AIRY     NOT AVBL
$$

NCZ021-022-025-041-071-084-088-071700-
CENTRAL NORTH CAROLINA

CITY           SKY/WX    TMP DP  RH WIND       PRES   REMARKS
CHARLOTTE      NOT AVBL
GREENSBORO     NOT AVBL
WINSTON-SALEM  NOT AVBL
RALEIGH-DURHAM NOT AVBL
FAYETTEVILLE   NOT AVBL
$$

NCZ011-015-027-028-043-044-047-080-103-071700-
NORTHEASTERN NORTH CAROLINA

CITY           SKY/WX    TMP DP  RH WIND       PRES   REMARKS
ROANOKE RAPIDS NOT AVBL
ROCKY MT-WILSO NOT AVBL
ELIZABETH CITY NOT AVBL
MANTEO         NOT AVBL
CAPE HATTERAS  NOT AVBL
$$

NCZ078-087-090-091-093-098-101-071700-
SOUTHEASTERN NORTH CAROLINA

CITY           SKY/WX    TMP DP  RH WIND       PRES   REMARKS
LUMBERTON      NOT AVBL
NEW BERN       NOT AVBL
BEAUFORT       NOT AVBL
WILMINGTON     NOT AVBL
$$



USA.gov is the U.S. government's official web portal to all federal, state and local government web resources and services.